When you browse on this site, cookies collect data to enhance your experience and personalize the content and advertising you see.
Visit our Privacy Policy to learn more. By continuing to use the site, you agree to this use of cookies and data.
  • In Czech Republic
  • List of Countries
  • For 7 days
  • Water Temperature
  • Weather Map
  • Weather Widgets
  • user-avatar
    Login

    Hourly Weather Le Havre

    Today, 3 June, Wednesday

    Time Temperature Precipitation Wind Pressure Humidity
    00:00 +14°C° 0 mm 1 mps 759 mmHg 80%
    01:00 +14°C° 0 mm 1 mps 758 mmHg 81%
    02:00 +14°C° 0 mm 1 mps 757 mmHg 81%
    03:00 +13°C° 0 mm 1 mps 757 mmHg 81%
    04:00 +14°C° 0 mm 1 mps 757 mmHg 81%
    05:00 +15°C° 0 mm 1 mps 756 mmHg 81%
    06:00 +16°C° 0 mm 1 mps 756 mmHg 80%
    07:00 +19°C° 0 mm 1 mps 756 mmHg 75%
    08:00 +20°C° 0 mm 1 mps 755 mmHg 70%
    09:00 +20°C° 0 mm 2 mps 755 mmHg 66%
    10:00 +20°C° 0 mm 2 mps 754 mmHg 64%
    11:00 +21°C° 0 mm 2 mps 754 mmHg 62%
    12:00 +21°C° 0 mm 2 mps 754 mmHg 60%
    13:00 +21°C° 0.2 mm 3 mps 753 mmHg 63%
    14:00 +21°C° 0.2 mm 4 mps 753 mmHg 66%
    15:00 +20°C° 0.2 mm 5 mps 752 mmHg 69%
    16:00 +19°C° 0 mm 5 mps 752 mmHg 68%
    17:00 +19°C° 0 mm 5 mps 752 mmHg 68%
    18:00 +17°C° 0 mm 5 mps 752 mmHg 67%
    19:00 +16°C° 0 mm 5 mps 752 mmHg 71%
    20:00 +15°C° 0 mm 6 mps 752 mmHg 75%
    21:00 +13°C° 0 mm 6 mps 752 mmHg 80%
    22:00 +13°C° 0 mm 6 mps 752 mmHg 82%
    23:00 +13°C° 0 mm 6 mps 752 mmHg 85%

    Tomorrow, 4 June, Thursday

    Time Temperature Precipitation Wind Pressure Humidity
    00:00 +11°C° 0 mm 6 mps 752 mmHg 87%
    01:00 +11°C° 0 mm 6 mps 752 mmHg 87%
    02:00 +11°C° 0 mm 6 mps 752 mmHg 87%
    03:00 +11°C° 0 mm 6 mps 752 mmHg 88%
    04:00 +11°C° 0.1 mm 6 mps 752 mmHg 87%
    05:00 +12°C° 0.1 mm 5 mps 751 mmHg 87%
    06:00 +12°C° 0.1 mm 5 mps 751 mmHg 86%
    07:00 +12°C° 0.1 mm 5 mps 752 mmHg 85%
    08:00 +13°C° 0.1 mm 6 mps 752 mmHg 84%
    09:00 +13°C° 0.1 mm 6 mps 752 mmHg 83%
    10:00 +12°C° 0.2 mm 7 mps 752 mmHg 82%
    11:00 +12°C° 0.2 mm 7 mps 752 mmHg 81%
    12:00 +12°C° 0.2 mm 7 mps 752 mmHg 80%
    13:00 +14°C° 0.1 mm 7 mps 752 mmHg 77%
    14:00 +14°C° 0.1 mm 7 mps 751 mmHg 74%
    15:00 +14°C° 0.1 mm 7 mps 751 mmHg 71%
    16:00 +14°C° 0.1 mm 7 mps 751 mmHg 71%
    17:00 +14°C° 0.1 mm 7 mps 752 mmHg 71%
    18:00 +13°C° 0.1 mm 6 mps 752 mmHg 71%
    19:00 +13°C° 0.1 mm 6 mps 752 mmHg 75%
    20:00 +11°C° 0.1 mm 6 mps 752 mmHg 78%
    21:00 +10°C° 0.1 mm 6 mps 753 mmHg 82%
    22:00 +10°C° 0.1 mm 6 mps 752 mmHg 83%
    23:00 +10°C° 0.1 mm 6 mps 752 mmHg 84%

    Day after tomorrow, 5 June, Friday

    Time Temperature Precipitation Wind Pressure Humidity
    00:00 +10°C° 0.1 mm 6 mps 752 mmHg 86%
    01:00 +10°C° 0 mm 6 mps 752 mmHg 87%
    02:00 +9°C° 0 mm 6 mps 751 mmHg 88%
    03:00 +9°C° 0 mm 6 mps 751 mmHg 89%
    04:00 +10°C° 0.9 mm 7 mps 750 mmHg 90%
    05:00 +11°C° 0.9 mm 8 mps 750 mmHg 91%
    06:00 +12°C° 0.9 mm 9 mps 750 mmHg 92%
    07:00 +12°C° 0.1 mm 8 mps 750 mmHg 89%
    08:00 +12°C° 0.1 mm 8 mps 750 mmHg 86%
    09:00 +12°C° 0.1 mm 7 mps 750 mmHg 83%
    10:00 +13°C° 0 mm 8 mps 750 mmHg 81%
    11:00 +13°C° 0 mm 8 mps 750 mmHg 78%
    12:00 +13°C° 0 mm 8 mps 750 mmHg 76%
    13:00 +12°C° 0.3 mm 7 mps 750 mmHg 80%
    14:00 +12°C° 0.3 mm 7 mps 750 mmHg 85%
    15:00 +11°C° 0.3 mm 6 mps 750 mmHg 90%
    16:00 +11°C° 0.4 mm 6 mps 750 mmHg 90%
    17:00 +13°C° 0.4 mm 6 mps 750 mmHg 91%
    18:00 +12°C° 0.4 mm 7 mps 750 mmHg 92%
    19:00 +11°C° 0.1 mm 7 mps 750 mmHg 89%
    20:00 +11°C° 0.1 mm 7 mps 751 mmHg 87%
    21:00 +10°C° 0.1 mm 7 mps 751 mmHg 85%
    22:00 +10°C° 0 mm 6 mps 751 mmHg 84%
    23:00 +10°C° 0 mm 6 mps 752 mmHg 84%

    6 June, Saturday

    Time Temperature Precipitation Wind Pressure Humidity
    00:00 +9°C° 0 mm 5 mps 752 mmHg 83%
    01:00 +9°C° 0 mm 5 mps 752 mmHg 84%
    02:00 +8°C° 0 mm 5 mps 752 mmHg 86%
    03:00 +8°C° 0 mm 4 mps 752 mmHg 87%
    04:00 +8°C° 0.1 mm 4 mps 752 mmHg 87%
    05:00 +10°C° 0.1 mm 4 mps 752 mmHg 86%
    06:00 +9°C° 0.1 mm 5 mps 753 mmHg 86%
    07:00 +10°C° 0.1 mm 5 mps 753 mmHg 79%
    08:00 +12°C° 0.1 mm 5 mps 753 mmHg 72%
    09:00 +13°C° 0.1 mm 6 mps 753 mmHg 65%
    10:00 +14°C° 0.1 mm 7 mps 753 mmHg 63%
    11:00 +13°C° 0.1 mm 8 mps 753 mmHg 61%
    12:00 +13°C° 0.1 mm 8 mps 753 mmHg 59%
    13:00 +13°C° 0 mm 8 mps 753 mmHg 58%
    14:00 +13°C° 0 mm 8 mps 753 mmHg 57%
    15:00 +12°C° 0 mm 8 mps 753 mmHg 56%
    16:00 +12°C° 0 mm 8 mps 754 mmHg 58%
    17:00 +12°C° 0 mm 8 mps 754 mmHg 60%
    18:00 +11°C° 0 mm 8 mps 754 mmHg 62%
    19:00 +10°C° 0 mm 7 mps 754 mmHg 65%
    20:00 +9°C° 0 mm 7 mps 755 mmHg 68%
    21:00 +8°C° 0 mm 6 mps 755 mmHg 71%
    22:00 +8°C° 0.1 mm 6 mps 755 mmHg 75%
    23:00 +8°C° 0.1 mm 6 mps 755 mmHg 80%

    7 June, Sunday

    Time Temperature Precipitation Wind Pressure Humidity
    00:00 +7°C° 0.1 mm 6 mps 755 mmHg 84%
    01:00 +7°C° 0.1 mm 6 mps 755 mmHg 85%
    02:00 +6°C° 0.1 mm 7 mps 755 mmHg 86%
    03:00 +6°C° 0.1 mm 7 mps 755 mmHg 87%
    04:00 +8°C° 0.1 mm 7 mps 755 mmHg 86%
    05:00 +9°C° 0.1 mm 7 mps 755 mmHg 84%
    06:00 +9°C° 0.1 mm 7 mps 755 mmHg 82%
    07:00 +10°C° 0.2 mm 7 mps 755 mmHg 79%
    08:00 +11°C° 0.2 mm 7 mps 756 mmHg 77%
    09:00 +12°C° 0.2 mm 7 mps 756 mmHg 74%
    10:00 +14°C° 0.2 mm 7 mps 756 mmHg 73%
    11:00 +13°C° 0.2 mm 8 mps 756 mmHg 71%
    12:00 +15°C° 0.2 mm 8 mps 756 mmHg 70%
    13:00 +15°C° 0.2 mm 8 mps 756 mmHg 71%
    14:00 +15°C° 0.2 mm 8 mps 756 mmHg 72%
    15:00 +15°C° 0.2 mm 8 mps 756 mmHg 74%
    16:00 +15°C° 0.1 mm 8 mps 756 mmHg 75%
    17:00 +15°C° 0.1 mm 7 mps 756 mmHg 76%
    18:00 +15°C° 0.1 mm 7 mps 757 mmHg 78%
    19:00 +14°C° 0 mm 7 mps 757 mmHg 80%
    20:00 +12°C° 0 mm 7 mps 757 mmHg 83%
    21:00 +12°C° 0 mm 7 mps 758 mmHg 86%
    22:00 +11°C° 0.1 mm 7 mps 757 mmHg 87%
    23:00 +11°C° 0.1 mm 7 mps 757 mmHg 87%

    8 June, Monday

    Time Temperature Precipitation Wind Pressure Humidity
    00:00 +11°C° 0.1 mm 6 mps 757 mmHg 88%
    01:00 +11°C° 0.2 mm 6 mps 757 mmHg 89%
    02:00 +11°C° 0.2 mm 6 mps 757 mmHg 90%
    03:00 +11°C° 0.2 mm 6 mps 757 mmHg 91%
    04:00 +11°C° 0.1 mm 6 mps 758 mmHg 91%
    05:00 +11°C° 0.1 mm 6 mps 758 mmHg 91%
    06:00 +13°C° 0.1 mm 6 mps 758 mmHg 91%
    07:00 +13°C° 0.1 mm 6 mps 758 mmHg 88%
    08:00 +14°C° 0.1 mm 6 mps 759 mmHg 85%
    09:00 +15°C° 0.1 mm 6 mps 759 mmHg 83%
    10:00 +15°C° 0.1 mm 6 mps 759 mmHg 80%
    11:00 +15°C° 0.1 mm 6 mps 759 mmHg 77%
    12:00 +16°C° 0.1 mm 6 mps 759 mmHg 74%
    13:00 +16°C° 0 mm 6 mps 759 mmHg 73%
    14:00 +16°C° 0 mm 6 mps 759 mmHg 71%
    15:00 +17°C° 0 mm 6 mps 759 mmHg 70%
    16:00 +16°C° 0 mm 6 mps 759 mmHg 72%
    17:00 +16°C° 0 mm 6 mps 759 mmHg 74%
    18:00 +15°C° 0 mm 6 mps 759 mmHg 76%
    19:00 +14°C° 0 mm 5 mps 760 mmHg 81%
    20:00 +13°C° 0 mm 5 mps 760 mmHg 86%
    21:00 +13°C° 0 mm 4 mps 760 mmHg 91%
    22:00 +12°C° 0 mm 4 mps 760 mmHg 92%
    23:00 +12°C° 0 mm 4 mps 760 mmHg 93%
    Show more